Location: Grantsboro
(35.1404°N, 76.8424°W)
Time: 13:28:51
(UTC+00:00)

STARLINK-49 - Pass Details

Date: 18 January 2020
Orbit: 528 x 531 km, 53.0° (Epoch: 21 February)

Event Time Altitude Azimuth Distance (km) Brightness Sun altitude
Exits shadow 11:07:09 - 227° (SW) 2,191 6.4 -13.7°
Reaches altitude 10° 11:08:12 10° 227° (SW) 1,766 5.9 -13.5°
Maximum altitude 11:12:13 82° 316° (NW) 538 3.4 -12.7°
Drops below altitude 10° 11:16:15 10° 44° (NE) 1,777 6.6 -12.0°
Sets 11:18:29 0° 45° (NE) 2,671 7.5 -11.5°
